Skip Page Navigation
NASA JPL Caltech
NASA Logo - Jet Propulsion Laboratory + View the NASA Portal
+ Center for Near-Earth Object Studies
JPL Home Earth Solar System Stars & Galaxies Technology
JPL Solar System Dynamics
BODIES ORBITS EPHEMERIDES TOOLS PHYSICAL DATA DISCOVERY FAQ SITE MAP
IMPORTANT: The SSD Announcement email list is now available. Major changes are coming in the near future, including possible hostname and/or URL changes. To be notified of such changes, subscribe to this email list.

Please visit this page for more details.


JPL Small-Body Database Browser
Search: [ help ]  
59982 (1999 SF9)
Classification: Main-belt Asteroid          SPK-ID: 2059982
Ephemeris | Orbit Diagram | Orbital Elements | Mission Design | Physical Parameters | Discovery Circumstances | Close-Approach Data ]

[ show orbit diagram ]
Orbital Elements at Epoch 2459000.5 (2020-May-31.0) TDB
Reference: JPL 28 (heliocentric ecliptic J2000)
 Element Value Uncertainty (1-sigma)   Units 
e .07973780869627124 3.4731e-08  
a 2.985873543919122 1.8952e-08 au
q 2.747786530482841 1.0554e-07 au
i 11.7293858221739 4.3048e-06 deg
node 109.0964717022392 1.8094e-05 deg
peri 326.9296753327211 3.1326e-05 deg
M 283.1641068585588 2.5852e-05 deg
tp 2459402.723264195235
(2021-Jul-07.22326420)
0.00013597 TDB
period 1884.540794544198
5.16
1.7942e-05
4.912e-08
d
yr
n .1910279687456014 1.8187e-09 deg/d
Q 3.223960557355402 2.0463e-08 au
  Orbit Determination Parameters
   # obs. used (total)      1655  
   data-arc span      7324 days (20.05 yr)  
   first obs. used      1999-09-11  
   last obs. used      2019-09-30  
   planetary ephem.      DE431  
   SB-pert. ephem.      SB431-N16  
   condition code      0  
   norm. resid. RMS      .49619  
   source      ORB  
   producer      Otto Matic  
   solution date      2019-Nov-07 07:23:42  

Additional Information
 Earth MOID = 1.77146 au 
 Jupiter MOID = 1.97634 au 
 T_jup = 3.221 
[ show covariance matrix ]

Ephemeris | Orbit Diagram | Orbital Elements | Mission Design | Physical Parameters | Discovery Circumstances | Close-Approach Data ]

Physical Parameter Table
Parameter Symbol Value Units Sigma Reference Notes
absolute magnitude H 13.1   n/a MPO432154  
diameter diameter 7.963 km 1.525 urn:nasa:pds:neowise_diameters_albedos::2.0[mainbelt] (http://adsabs.harvard.edu/abs/2012ApJ...759L...8M)  
geometric albedo albedo 0.193   0.126 urn:nasa:pds:neowise_diameters_albedos::2.0[mainbelt] (http://adsabs.harvard.edu/abs/2012ApJ...759L...8M)  

59982 (1999 SF9)          Discovered 1999-Sep-29 by LINEAR at Socorro
Reference: 20030614/Numbers.arcLast Updated: 2004-04-19

[ hide close-approach data ]
Close-Approach Data   ...sorted by Date/Time (TDB)
Date/Time (TDB) Time Uncertainty
(days_HH:MM)
Body Nominal Distance (au) Minimum Distance (au) Maximum Distance (au) V-relative (km/s) V-infinity (km/s) JD (TDB) Time Uncertainty (minutes) Semi-major axis (km) Semi-minor axis (km) range-LOV angle (deg) N-sigma BP Orbit Ref. Reference Modified
1973-Jan-11 04:10 00:01 Jupiter 1.99250558237185 1.99250523592028 1.99250592882342 4.04751273870699 3.94108499599855 2441693.673606364 1.12489391737283 91.0967999666603 15.5377628564998 89.5521755014148 3933835.07124964 T 28 CATAB v2.0f-lin.ifort 2019-Nov-07 07:23:52 2019-Nov-07 07:23
2091-Nov-14 15:48 00:02 Jupiter 1.98355308800085 1.98355272245686 1.98355345354506 4.04118163364662 3.93409497507204 2485100.158303280 2.10172727085709 157.233297584602 16.1375388958908 -88.7679960413692 3913315.39628385 T 28 CATAB v2.0f-lin.ifort 2019-Nov-07 07:23:52 2019-Nov-07 07:23

Alternate Designations
 1999 SF9 = 2000 WD37 
Ephemeris | Orbit Diagram | Orbital Elements | Mission Design | Physical Parameters | Discovery Circumstances | Close-Approach Data ]
ABOUT SSD CREDITS/AWARDS PRIVACY/COPYRIGHT GLOSSARY LINKS
FirstGov 2020-Feb-16 21:56 UT
(server date/time)  
NASA Home Page
Site Manager:   Ryan S. Park
Webmaster  Alan B. Chamberlin